GFSGBSN_sfc_thetae_000.txt.gz
Theta_e
326 324 323 322 322 321 321 321 321 320 320 321 320 319 318 318 318 318 319 319 319 320 320 321 322 322 312 301 302 314 325 325 315 310 304 303 300 299 295 297 297 296 297 299 300 299 297
326 326 325 323 323 322 322 323 322 322 321 320 319 318 318 317 317 318 318 318 319 320 320 320 321 320 303 292 306 312 310 311 308 304 302 302 301 301 297 297 296 295 297 297 298 298 298
327 327 326 326 325 324 323 323 323 322 322 321 320 318 318 318 318 317 318 318 318 319 319 320 320 318 305 298 307 307 307 305 304 303 301 301 302 300 297 295 298 296 294 294 296 296 295
327 327 327 326 325 325 324 324 323 323 322 321 320 319 318 318 318 319 319 319 319 319 319 320 321 311 295 307 304 304 304 302 303 303 302 302 302 300 297 298 295 291 291 287 293 294 295
328 327 326 326 325 325 324 324 324 324 322 321 319 318 318 318 318 318 319 319 318 319 319 320 309 302 296 311 303 305 304 301 301 302 301 305 301 296 295 291 287 286 284 285 290 295 294
328 327 326 326 325 325 324 323 323 323 321 320 319 319 318 318 318 318 319 319 317 315 316 317 312 297 300 299 304 303 301 303 300 300 299 299 295 291 290 288 283 284 283 286 287 291 291
328 327 327 326 325 325 324 323 323 322 321 320 319 319 318 318 319 319 314 306 297 295 301 294 296 296 299 303 304 302 302 301 301 296 291 293 289 287 292 291 292 286 285 285 288 293 290
328 327 327 326 326 325 324 323 323 323 322 321 320 319 318 318 318 318 307 302 299 300 293 299 299 299 301 302 297 301 303 297 296 291 292 289 287 293 294 291 291 289 288 288 291 293 289
326 327 326 326 326 325 324 323 323 323 322 320 319 318 318 317 317 308 301 300 305 303 292 295 297 295 296 301 296 297 300 296 292 290 291 290 291 295 292 290 289 289 287 288 288 289 288
326 325 325 325 324 323 323 323 322 321 320 319 319 318 317 316 309 304 300 303 304 302 284 289 293 295 298 298 292 296 297 296 292 290 290 289 294 293 290 289 291 288 291 290 287 284 283
321 320 320 319 319 320 320 321 321 320 319 318 318 318 317 315 305 303 305 306 303 296 278 291 292 300 298 292 291 292 293 294 289 289 289 288 288 289 288 291 291 290 289 288 285 283 282
318 317 317 317 317 317 318 318 318 319 319 318 317 317 316 311 306 307 306 303 298 285 278 288 291 291 290 292 291 291 291 292 291 288 288 289 289 289 290 289 290 289 288 286 283 282 279
316 315 315 315 315 315 315 315 316 316 316 317 318 317 314 313 305 308 305 302 294 283 291 289 288 290 289 288 289 288 287 286 285 282 281 285 286 287 290 287 287 288 285 278 275 274 278
313 312 312 312 312 312 312 312 312 312 314 314 315 317 314 314 309 309 307 299 287 293 289 294 294 289 288 290 290 288 285 283 286 285 281 281 282 287 289 289 286 286 286 282 273 276 282
309 309 309 308 308 309 310 310 310 310 311 312 315 315 312 314 309 309 301 290 292 293 297 296 297 292 288 288 290 287 285 284 287 288 285 282 284 287 288 288 290 283 282 288 281 270 273
305 305 305 304 305 305 306 307 307 308 309 310 311 311 310 313 311 307 296 293 295 296 298 298 292 294 288 288 290 288 287 288 288 289 291 286 283 288 285 287 286 287 288 281 280 275 273
303 303 303 303 302 302 302 303 304 306 307 309 309 303 308 311 309 300 290 293 296 299 299 296 294 294 291 291 293 290 290 290 293 289 291 290 287 286 284 284 285 284 284 284 284 283 280
300 300 300 300 301 300 300 301 303 304 305 306 304 295 308 310 296 296 293 295 298 297 299 298 297 295 294 294 293 294 293 295 297 294 291 292 289 284 287 289 287 286 287 288 283 280 280
300 300 299 299 300 299 299 299 300 300 303 300 298 297 307 307 291 293 295 295 297 296 296 296 295 297 297 293 290 293 294 299 299 298 294 295 288 283 284 288 289 283 285 287 287 283 283
300 300 301 300 301 301 300 299 298 299 300 296 294 290 297 299 299 294 292 293 292 297 296 297 295 296 293 291 294 291 291 295 297 297 299 297 290 286 282 285 288 285 285 285 285 282 283
299 300 301 300 299 299 300 300 299 298 298 296 289 287 293 287 291 293 294 293 290 289 295 296 293 293 291 288 289 288 291 291 293 296 296 294 286 288 289 290 290 289 289 289 287 288 284
301 301 300 300 300 300 299 299 299 299 299 290 286 286 290 288 289 290 290 288 289 290 291 289 289 291 291 287 287 285 286 286 286 289 288 290 285 288 286 288 287 285 288 289 288 288 288
299 300 300 299 299 299 299 299 299 298 298 287 288 289 289 283 282 280 283 285 287 288 290 291 289 285 285 286 287 287 288 288 288 286 285 285 284 283 280 284 283 280 286 287 288 290 289
300 299 299 299 299 299 299 299 299 298 298 290 288 290 285 277 280 280 282 282 281 282 284 286 285 284 287 289 287 285 285 286 285 286 288 284 283 283 279 281 273 284 290 291 288 290 291
301 301 301 301 300 299 298 298 299 299 298 293 290 289 285 275 280 280 280 280 281 281 282 282 284 287 286 282 277 268 270 270 277 281 282 285 284 279 277 276 281 285 283 281 281 281 282
299 300 300 300 301 300 300 299 299 298 299 291 290 291 288 279 275 281 279 280 272 273 274 280 283 283 283 277 269 263 261 267 267 274 280 280 280 277 274 270 270 275 278 281 283 279 281
297 298 299 299 300 300 300 300 299 299 299 293 289 292 287 280 282 281 277 277 281 277 270 271 273 275 279 272 257 259 261 274 265 264 266 264 266 268 270 270 274 277 279 281 272 271 280
298 298 298 297 297 299 300 299 299 299 299 296 290 293 288 283 282 283 283 279 280 276 269 270 271 270 271 268 262 271 267 272 269 272 269 268 268 265 268 262 266 278 276 270 275 280 281
297 297 297 298 297 298 299 299 299 299 298 297 287 291 294 285 281 286 286 287 287 284 279 271 273 267 274 267 263 264 261 263 263 258 272 265 271 265 271 271 278 279 278 280 282 276 277

GFSGBSN_sfc_thetae_003.txt.gz
Theta_e
326 325 323 322 322 322 322 322 321 321 321 321 320 319 319 319 319 319 319 319 319 319 320 320 321 321 310 297 300 312 328 328 315 308 304 301 299 298 295 295 296 295 296 299 299 298 297
326 326 325 325 324 323 323 323 323 322 322 321 320 319 319 319 319 319 319 319 319 319 319 320 320 319 302 291 303 313 311 311 306 304 301 301 299 300 295 296 295 295 296 297 297 297 297
327 327 327 326 326 325 324 324 324 323 323 322 321 320 319 319 320 319 319 320 320 320 319 319 320 317 301 297 305 309 307 305 304 302 299 299 299 298 295 293 296 295 293 293 293 294 295
328 327 327 326 326 325 324 324 324 324 323 322 321 319 319 319 319 320 320 320 320 320 320 319 318 309 293 305 303 304 303 301 301 301 300 300 300 298 295 296 294 290 289 286 291 292 293
328 327 326 326 326 325 324 324 324 324 323 321 320 319 319 319 319 319 319 320 319 318 318 319 308 299 293 309 302 303 302 301 300 300 300 304 299 295 293 289 287 285 283 284 288 293 292
328 327 327 326 326 325 324 324 324 323 322 321 319 319 319 319 319 319 319 319 317 315 316 316 309 294 295 297 303 302 300 301 298 298 297 297 293 290 288 286 282 283 282 284 284 291 289
328 327 327 327 326 326 325 324 323 323 322 320 320 319 319 319 319 320 313 304 297 294 301 295 296 293 296 301 303 300 301 301 298 294 290 291 288 286 291 290 291 285 284 284 288 291 287
328 327 327 327 327 326 325 324 324 324 323 321 320 319 319 318 319 317 304 300 297 298 291 298 298 298 299 301 296 299 301 296 294 290 290 288 286 292 292 290 289 287 286 287 291 292 287
327 327 327 326 326 325 325 324 324 324 323 321 319 318 318 318 317 307 299 298 303 301 290 293 296 295 295 299 296 296 299 295 292 289 289 290 290 293 291 288 287 287 286 288 287 288 287
327 326 326 325 325 324 324 323 322 322 321 320 320 318 317 317 309 303 300 303 303 300 285 288 291 294 296 296 291 294 295 294 290 290 288 288 292 291 288 287 289 287 289 289 287 283 282
321 321 320 320 320 319 319 320 320 321 320 319 319 318 317 315 305 303 303 304 302 294 281 292 291 298 296 291 290 291 293 293 288 289 287 287 286 286 287 290 289 288 289 286 284 282 281
318 318 317 317 317 317 317 318 318 318 318 319 318 318 317 311 306 305 304 303 296 288 281 289 290 290 289 291 290 290 290 291 290 287 287 288 288 289 289 288 289 288 286 284 282 282 278
316 315 315 315 314 314 314 314 314 314 315 315 316 317 314 312 307 308 304 302 293 285 293 289 287 289 287 286 288 288 287 286 286 282 282 284 285 286 290 286 286 286 283 277 275 273 277
314 313 312 311 311 311 311 311 311 310 311 312 313 316 314 313 309 308 307 299 287 292 290 294 292 289 290 289 291 288 285 284 285 283 280 281 283 286 288 288 285 284 284 278 272 275 281
310 309 308 308 308 308 308 308 308 308 308 310 312 315 313 314 309 310 303 291 288 293 296 295 295 290 288 288 289 286 283 284 287 287 285 280 281 285 287 287 289 283 281 287 281 277 277
307 305 305 304 304 304 304 304 305 307 307 308 304 312 311 314 311 308 298 292 293 297 297 297 291 294 288 285 291 288 286 287 287 288 289 286 282 286 284 285 286 286 287 280 279 273 274
303 303 303 302 302 301 302 302 303 304 305 306 305 302 307 310 310 301 290 293 296 299 299 296 294 293 291 291 293 292 292 290 290 289 290 289 287 286 286 284 287 282 282 283 283 281 279
300 300 299 299 300 300 300 300 300 301 303 305 302 293 308 310 296 297 293 295 298 297 298 299 297 296 294 293 292 292 291 293 298 295 291 292 289 284 287 288 288 286 285 285 280 280 281
300 300 300 299 299 299 299 299 299 299 301 298 295 294 307 306 291 293 295 295 297 296 295 296 295 296 296 292 288 292 293 298 299 297 294 293 287 283 283 285 286 286 289 289 288 285 280
300 300 300 301 300 300 300 300 298 299 299 295 293 287 297 300 299 294 291 292 292 298 296 298 296 295 292 291 293 289 290 293 294 295 297 296 290 286 282 283 288 285 286 288 287 282 282
300 300 300 301 299 299 299 299 299 298 299 292 289 287 291 285 290 291 292 290 288 289 295 297 293 293 291 287 288 287 290 289 290 292 291 291 285 286 287 288 288 287 286 288 286 286 282
300 300 301 301 300 301 299 298 299 298 300 288 286 285 289 285 288 288 289 287 287 288 290 289 288 290 290 287 288 285 284 285 285 286 286 288 281 284 282 284 284 283 285 285 285 284 283
300 300 300 300 300 299 299 299 299 299 298 286 287 288 288 283 282 283 283 286 286 286 288 289 287 286 286 286 285 285 286 286 286 283 281 282 281 279 275 280 279 275 280 282 284 284 282
301 301 300 300 300 299 299 299 299 299 298 289 287 287 284 277 280 280 282 281 280 281 280 284 284 283 284 287 287 285 284 283 283 284 285 280 279 278 273 275 266 277 282 283 281 278 278
301 301 302 302 301 300 300 299 299 300 300 291 289 288 284 274 280 279 280 279 279 279 279 280 283 285 284 280 275 269 267 269 275 279 281 283 280 273 264 264 273 277 277 275 275 274 278
300 300 300 300 301 301 301 301 299 299 299 291 289 291 287 277 276 281 278 279 274 272 274 279 281 281 282 276 267 259 260 265 265 272 278 278 280 273 262 265 265 273 277 280 279 272 278
300 300 298 298 299 300 300 301 301 300 300 293 288 292 287 280 282 281 277 277 280 277 270 270 272 275 279 271 256 258 260 273 264 263 264 261 260 260 257 258 265 272 275 277 263 266 275
299 299 298 298 298 298 299 299 300 300 300 296 290 291 289 282 282 283 283 279 279 276 268 270 272 270 270 268 260 270 264 270 267 271 269 266 258 257 255 254 260 276 274 270 272 275 277
299 299 298 298 298 298 298 298 299 300 300 299 289 293 294 286 284 285 286 287 285 283 278 274 274 266 274 267 263 263 260 262 263 258 272 264 269 263 266 265 277 278 276 278 278 277 277

GFSGBSN_sfc_thetae_006.txt.gz
Theta_e
325 324 322 322 322 322 322 322 322 322 322 321 321 320 320 320 320 320 320 320 320 320 320 320 320 321 308 294 298 312 329 329 311 306 303 300 297 296 293 294 294 293 295 297 298 296 297
326 325 325 325 323 324 323 323 323 323 323 322 321 320 320 320 320 320 320 320 320 320 320 319 320 319 299 291 302 315 316 310 307 303 300 300 298 299 294 294 294 293 294 295 295 296 296
327 326 326 326 326 325 324 324 324 324 323 322 322 321 320 320 321 321 320 321 320 320 320 320 319 315 299 296 304 310 309 305 304 302 299 299 299 296 294 292 294 294 292 292 292 293 293
327 327 327 326 326 325 324 324 324 324 323 322 321 320 320 320 320 320 320 320 321 320 320 320 319 307 292 302 303 304 303 300 301 300 299 299 299 297 294 294 292 288 288 285 289 291 292
328 327 327 326 326 325 324 324 324 323 322 321 320 319 319 319 319 319 320 320 319 319 319 318 307 297 292 308 300 302 301 299 299 299 299 303 298 294 292 288 286 284 282 283 287 292 291
328 327 327 326 326 326 325 324 324 323 322 320 320 319 319 319 319 319 319 317 317 315 316 315 308 293 296 295 301 300 299 301 298 297 296 295 292 289 287 286 282 283 281 283 283 289 287
327 327 327 327 326 326 325 325 324 323 322 321 320 319 319 319 319 320 309 301 296 293 299 295 296 293 294 300 302 299 301 300 297 293 290 290 287 286 290 289 289 283 283 283 286 290 286
327 327 327 327 327 326 325 325 325 325 324 322 320 320 319 319 319 316 302 298 296 297 291 297 297 298 298 299 295 297 300 296 293 290 289 287 285 291 290 288 287 286 285 286 289 291 286
327 326 326 326 326 326 325 324 324 325 324 322 320 319 319 318 317 307 299 297 303 301 290 293 295 294 295 298 294 295 298 294 291 288 288 288 290 292 289 286 286 284 283 286 285 287 286
326 326 326 325 325 324 323 323 323 322 321 321 320 320 318 317 310 303 300 302 303 299 288 290 290 293 295 295 289 294 295 293 289 289 287 287 290 290 286 286 287 285 288 288 286 283 281
322 321 320 320 320 319 319 319 319 319 319 319 319 319 319 316 306 304 303 303 300 293 282 293 290 297 295 290 289 290 292 292 288 288 287 286 285 285 285 288 288 287 287 286 283 282 280
319 318 318 317 317 316 316 316 315 315 315 316 317 318 317 312 307 307 305 303 296 289 284 290 289 289 289 290 289 290 290 291 289 286 285 287 287 288 288 288 289 287 285 283 281 281 277
317 316 315 314 313 313 312 312 312 311 311 312 313 315 314 313 308 307 305 304 294 287 294 289 286 288 286 286 288 287 287 286 286 283 282 284 285 286 288 285 285 285 282 276 274 273 276
314 312 312 311 311 310 310 309 309 308 308 309 310 313 314 313 310 307 307 300 286 290 291 293 291 290 289 289 290 287 284 284 285 283 281 282 285 285 287 287 285 283 284 278 274 272 280
311 309 308 308 307 306 306 306 306 306 307 307 310 314 313 314 309 310 304 291 289 290 294 293 294 289 287 288 290 285 283 284 288 286 286 281 283 285 286 286 287 282 281 286 281 282 276
307 306 305 305 304 303 303 303 304 305 305 306 301 308 307 314 310 308 298 292 291 296 296 295 291 293 287 286 286 285 285 286 287 287 289 287 283 286 285 286 286 285 286 280 279 275 273
305 304 303 302 301 301 301 301 301 301 302 304 300 299 304 309 311 301 291 293 296 300 299 295 293 293 292 291 291 291 292 292 289 288 288 288 286 285 286 284 285 284 282 282 283 282 278
302 301 300 299 299 299 299 299 299 300 302 303 298 290 306 310 295 296 292 295 297 297 298 296 297 295 293 293 291 291 290 293 295 293 288 289 291 285 286 289 288 286 287 286 282 280 281
301 300 300 299 299 299 299 298 299 300 301 295 294 293 307 306 288 290 294 294 297 295 295 295 294 295 296 292 289 292 292 296 297 295 293 294 287 281 282 285 286 285 288 289 289 285 282
300 300 300 300 300 299 299 299 298 298 299 294 292 283 295 298 296 292 289 289 290 295 295 296 295 296 293 290 292 290 290 292 292 293 295 294 287 284 280 282 286 285 287 288 287 282 282
301 300 300 300 301 299 299 298 298 299 300 291 286 284 288 282 287 289 291 289 287 287 291 293 292 291 290 287 288 288 290 290 289 291 290 290 284 286 286 288 286 284 283 283 282 284 280
300 300 300 300 301 299 300 298 297 299 299 286 282 282 285 282 284 284 286 285 286 287 288 287 286 288 288 285 287 284 287 284 284 286 285 287 280 281 277 281 281 279 282 281 282 282 282
300 301 300 300 301 299 300 299 300 300 296 284 285 286 287 281 281 279 279 282 283 283 285 285 283 284 284 285 286 285 285 284 284 282 281 281 280 277 273 278 277 272 277 279 280 282 278
301 300 300 300 300 301 300 299 300 299 298 288 285 284 280 275 279 279 281 280 280 280 279 281 282 281 284 286 286 284 283 282 282 282 283 280 278 276 273 272 266 275 279 279 277 277 277
301 302 302 302 302 300 300 299 299 299 299 291 288 285 279 272 279 279 280 280 279 278 278 279 280 284 284 279 274 265 266 269 276 278 279 281 278 270 267 262 270 275 275 274 275 273 276
301 300 300 300 301 301 301 301 301 300 299 291 290 289 286 277 276 281 278 278 274 271 273 278 281 279 281 276 266 258 260 264 264 270 277 277 279 275 262 263 257 271 275 278 278 267 273
300 301 300 300 300 300 300 301 301 301 300 292 288 291 288 281 281 281 277 277 280 276 269 270 272 274 278 271 256 258 260 272 263 262 264 259 258 263 261 257 263 271 274 276 262 265 271
300 300 300 299 300 298 298 299 300 300 300 298 292 292 289 284 283 282 283 279 278 275 269 270 271 270 270 262 259 269 262 270 267 270 269 267 259 256 253 254 257 275 273 268 271 274 274
300 299 298 299 299 299 299 299 299 300 299 299 291 292 293 286 284 284 286 287 285 282 277 271 274 267 274 268 264 264 260 261 263 259 271 264 269 262 264 264 275 277 275 279 277 274 276

GFSGBSN_sfc_thetae_009.txt.gz
Theta_e
324 323 322 321 322 322 322 323 323 323 323 322 322 321 321 321 321 322 322 321 322 322 321 321 320 320 308 293 297 314 330 331 309 306 303 301 299 297 295 295 296 295 296 298 298 297 297
326 325 325 323 323 323 323 323 323 324 323 323 322 321 321 321 321 321 321 321 322 322 321 321 320 319 297 291 302 319 317 310 306 304 301 301 299 299 295 295 295 295 295 295 295 296 296
326 326 326 325 325 324 324 324 324 324 324 323 322 321 321 321 321 321 321 321 321 321 321 321 320 314 297 296 304 311 310 305 305 302 299 300 300 298 296 293 295 294 292 293 292 293 293
327 327 327 326 325 324 324 324 324 324 323 322 321 320 320 320 320 320 321 321 321 320 320 320 319 306 292 302 304 305 301 300 302 301 300 300 300 298 296 296 293 290 289 287 291 292 292
328 327 326 326 325 325 324 324 324 323 322 321 320 319 319 320 319 319 320 320 318 319 319 319 305 294 292 307 300 301 301 299 299 299 300 302 299 294 293 289 286 286 284 284 287 292 291
328 327 326 326 326 325 325 324 324 323 322 321 320 319 319 320 319 319 319 315 317 314 315 314 307 292 296 295 301 300 299 300 298 298 297 296 292 290 287 287 282 283 282 283 284 291 288
327 327 326 326 326 326 325 325 324 324 323 321 320 320 320 320 320 319 307 299 297 294 298 294 295 293 293 299 301 299 300 299 297 294 290 291 288 286 289 289 287 285 283 283 287 290 287
326 327 326 326 326 326 326 325 325 326 325 323 321 321 320 319 319 315 301 297 295 296 292 297 297 297 298 298 295 297 300 296 293 290 289 287 285 291 290 289 288 286 285 285 288 290 286
326 326 326 326 326 326 325 325 325 325 324 323 321 320 320 319 317 307 299 298 303 300 289 294 295 294 294 298 294 294 297 294 291 288 287 287 289 291 289 287 286 285 284 286 285 286 287
326 326 325 325 325 324 323 322 321 321 320 320 321 320 319 318 311 303 300 301 302 298 288 292 291 292 295 294 289 293 295 293 289 289 287 287 290 289 286 287 287 284 288 287 285 283 280
325 323 321 321 320 319 319 318 317 317 316 317 318 319 320 316 308 305 302 302 301 294 284 293 289 296 295 290 289 290 292 291 287 288 287 287 286 285 285 288 288 287 287 285 284 282 281
321 320 319 318 317 316 315 315 314 313 313 314 314 317 316 312 309 307 303 302 296 291 284 291 289 288 288 289 289 289 290 291 289 287 286 287 287 288 288 287 288 287 285 283 282 282 277
319 317 316 315 314 313 312 311 310 310 310 310 310 313 315 313 309 306 305 306 292 287 295 290 287 287 285 285 287 287 287 286 286 283 282 284 285 286 287 285 285 286 283 278 276 274 277
315 314 313 312 311 310 309 308 308 308 308 308 309 313 314 314 309 306 308 300 287 290 291 293 291 290 289 290 289 286 285 285 286 284 281 283 285 286 287 288 286 283 284 280 274 275 281
312 311 309 308 307 306 306 306 306 306 306 306 309 310 312 313 308 310 304 291 290 289 293 292 294 289 286 288 290 286 284 285 287 287 286 281 282 285 286 287 288 282 281 287 281 279 278
308 307 306 305 304 304 303 303 302 302 303 304 300 304 306 312 309 308 298 292 294 295 296 295 290 292 286 287 289 287 286 286 286 287 290 287 285 287 286 284 286 286 287 281 279 274 275
306 305 304 303 302 301 301 301 301 301 302 303 300 296 302 309 311 301 289 290 294 298 299 295 293 292 291 291 290 288 291 292 290 289 289 287 286 286 286 283 283 282 282 282 283 282 278
304 303 302 301 301 300 299 300 300 301 302 302 297 288 305 311 296 296 291 293 296 295 298 296 296 293 292 292 290 290 289 293 295 291 286 288 288 282 284 289 287 286 286 286 282 280 281
302 301 300 299 300 299 299 298 298 299 300 294 292 291 305 306 288 290 292 293 295 293 293 295 293 294 293 290 287 291 290 293 295 295 292 293 287 281 283 285 286 287 288 288 287 285 281
301 301 300 300 300 299 298 298 298 299 300 293 287 282 291 299 294 290 288 288 289 293 293 295 293 293 291 289 291 288 289 292 291 293 295 294 287 284 280 282 286 284 286 286 286 281 281
301 300 300 299 300 300 299 298 297 299 299 289 284 282 287 285 284 287 288 287 284 284 289 290 287 288 287 285 285 285 289 289 291 291 289 290 283 285 285 285 284 281 281 281 279 281 277
300 300 300 300 300 301 299 299 298 300 297 285 281 279 283 284 285 282 286 283 284 285 287 285 284 285 285 283 285 283 285 285 285 284 283 286 281 280 276 281 280 278 279 280 279 280 280
300 300 300 300 300 302 300 299 299 300 295 282 283 284 283 280 280 278 278 281 280 282 283 282 281 281 280 282 284 285 285 284 284 283 281 282 280 276 274 278 276 272 276 278 278 280 278
301 301 301 301 300 301 301 300 299 300 296 287 284 283 277 272 279 279 280 281 280 280 278 281 280 280 283 285 285 282 281 282 282 282 284 280 277 276 273 267 266 275 277 279 277 275 274
302 302 302 302 301 301 301 301 300 300 299 289 288 283 276 267 279 279 279 279 279 277 278 278 280 281 281 278 272 264 264 267 274 278 279 281 277 270 269 267 271 275 276 275 275 272 274
301 301 301 301 302 301 301 301 301 300 300 293 291 290 283 273 273 281 277 278 271 271 272 277 280 278 280 276 267 259 259 263 264 269 275 277 278 274 264 262 256 270 275 277 276 265 272
301 301 301 301 302 300 300 301 301 301 301 293 292 291 288 280 280 280 276 276 279 275 269 269 271 273 278 271 258 260 259 270 263 261 262 259 260 269 269 267 264 271 273 276 262 265 271
301 300 299 301 301 300 300 299 300 300 301 298 292 293 289 283 282 282 283 278 278 275 269 270 271 270 269 263 261 268 262 269 266 269 268 267 259 254 254 256 260 273 273 268 271 274 274
300 300 299 300 300 300 300 300 299 299 300 299 291 294 294 286 282 284 286 287 285 282 278 270 274 267 274 268 263 265 260 263 264 260 271 265 269 263 265 264 274 276 275 278 278 276 277

GFSGBSN_sfc_thetae_015.txt.gz
Theta_e
323 321 321 321 321 321 322 322 322 322 323 323 322 322 322 322 322 322 323 323 324 323 322 322 322 321 318 306 306 323 330 331 317 314 311 310 308 307 303 304 305 303 304 306 307 307 306
326 325 324 324 324 324 323 323 323 323 324 323 322 322 321 321 322 322 322 323 323 322 321 321 322 320 311 301 313 324 325 322 315 313 311 311 308 309 305 304 303 305 304 304 305 304 304
326 326 326 326 325 324 323 324 324 324 324 323 322 321 321 321 322 322 322 322 321 320 321 321 322 318 307 307 315 322 321 316 315 314 310 312 311 307 307 303 306 303 299 302 303 304 302
327 327 326 326 325 324 324 324 324 324 323 322 321 320 320 320 321 321 322 322 318 320 320 320 321 315 305 308 316 315 314 311 314 313 311 311 311 308 305 306 302 299 300 295 302 301 302
327 327 326 326 326 325 324 324 324 324 323 322 321 320 320 320 320 320 321 317 319 320 320 320 316 311 304 310 306 309 311 307 310 309 309 308 309 305 304 299 297 299 293 296 298 303 300
327 327 326 326 326 325 325 324 324 324 323 322 321 321 321 321 320 320 319 314 320 317 318 317 311 303 303 303 306 307 309 309 306 307 304 304 303 300 300 297 291 295 296 297 296 301 300
327 326 326 326 325 325 325 324 324 324 324 323 322 322 322 321 321 321 317 315 314 310 309 306 308 304 308 306 308 305 307 305 306 304 298 302 297 295 299 301 299 298 296 295 298 301 299
326 326 325 325 325 325 324 324 325 326 325 324 322 323 323 322 321 319 316 312 306 305 304 314 311 308 305 306 302 303 306 302 301 297 300 297 294 300 302 298 297 296 294 294 298 301 296
325 325 325 325 325 325 324 324 325 325 325 323 322 322 322 321 321 319 313 308 311 309 302 308 306 304 304 305 303 304 304 303 299 298 297 296 300 301 298 297 295 295 294 294 294 297 298
325 325 324 324 324 323 323 323 323 323 322 321 322 321 321 321 316 320 314 310 311 309 299 302 301 301 301 302 299 301 304 302 300 298 300 298 300 296 296 294 296 292 298 296 294 292 290
325 324 324 323 323 322 322 321 321 320 319 319 320 321 321 317 322 317 311 311 311 307 288 301 297 305 302 298 298 297 302 301 297 297 297 295 295 293 294 295 297 294 295 294 294 292 292
325 324 323 323 322 321 319 318 316 316 315 315 317 319 318 319 322 315 313 310 309 297 287 299 297 297 296 297 296 298 299 301 299 296 297 296 296 296 297 297 296 295 294 294 294 293 287
325 324 322 320 318 316 316 315 313 312 311 310 313 318 315 318 315 315 313 313 298 290 301 297 295 295 295 294 295 296 296 295 295 292 293 297 297 297 295 293 295 293 291 287 286 287 286
323 318 316 315 315 313 312 311 310 309 308 308 310 317 316 317 311 309 312 304 288 294 296 301 299 299 297 299 297 296 296 295 299 295 293 291 289 296 296 295 294 294 294 288 281 283 287
317 316 314 313 312 311 310 308 307 306 305 307 311 317 315 320 315 312 308 291 291 296 299 298 298 295 295 298 296 297 297 295 298 299 291 291 290 299 295 296 295 292 289 293 286 287 284
314 312 311 310 309 308 307 305 304 303 303 305 310 309 309 316 313 313 300 292 295 300 300 300 293 296 292 295 294 295 294 297 296 296 296 294 287 295 295 295 297 293 297 287 287 278 278
310 309 308 307 306 305 304 302 302 302 302 305 306 297 306 312 315 305 290 292 295 300 301 297 295 294 294 293 294 293 293 297 298 297 296 294 291 290 294 292 290 291 288 289 288 286 280
308 307 306 304 303 303 302 302 301 302 304 304 303 293 310 314 298 298 293 295 296 297 300 298 298 296 294 294 292 292 292 294 300 298 293 296 291 285 288 294 296 294 290 290 283 282 285
305 304 304 303 302 301 301 300 300 300 301 303 297 298 309 309 290 293 296 295 297 295 296 296 295 297 296 292 289 292 293 297 298 295 293 294 288 281 283 288 293 290 292 292 291 287 283
304 303 302 302 301 301 300 299 299 299 298 304 297 289 298 300 301 294 292 292 292 298 296 296 294 295 293 291 293 289 290 294 297 296 295 295 288 284 280 283 288 285 287 289 287 281 282
304 303 303 302 302 301 301 299 299 299 298 299 295 290 294 288 292 294 293 291 289 289 294 294 291 291 290 286 287 287 290 290 293 293 292 291 283 285 285 286 286 285 284 285 283 285 280
302 303 302 302 301 301 301 300 298 300 297 295 289 289 292 292 293 292 291 289 288 289 289 288 288 290 290 287 287 284 286 286 286 288 288 289 281 283 279 283 283 281 283 284 284 285 284
302 302 302 302 301 301 301 300 299 300 296 291 293 293 291 288 289 288 289 289 288 291 289 289 289 287 285 287 289 289 289 289 288 285 283 283 281 278 274 280 279 275 279 281 283 285 283
302 302 302 302 302 301 301 301 301 300 298 294 294 293 287 283 285 285 286 288 287 288 286 286 287 286 287 290 288 286 285 284 284 284 285 280 279 279 274 275 267 278 284 283 281 281 283
301 301 302 302 301 302 301 302 301 301 300 295 295 291 287 283 284 284 284 285 287 286 285 285 286 287 288 284 279 276 276 275 278 281 281 283 279 275 271 271 275 278 280 279 278 277 283
301 302 302 302 302 301 302 302 302 301 301 298 295 296 290 284 282 285 283 284 282 282 281 281 285 287 286 282 278 271 270 273 272 275 279 280 281 277 274 269 266 275 280 281 280 272 281
302 302 302 303 302 302 302 301 301 301 301 299 296 297 291 284 287 286 283 282 285 283 281 281 281 281 285 279 274 272 272 276 270 271 273 273 274 272 272 270 273 282 280 281 270 274 281
301 301 302 302 302 302 302 302 302 302 302 299 297 298 292 286 287 287 287 284 284 284 280 278 280 279 279 275 275 274 273 275 273 275 274 272 272 271 271 268 266 280 278 274 279 282 282
301 301 301 302 302 301 302 302 302 301 302 301 292 296 297 288 288 292 291 292 290 289 286 281 284 280 282 278 278 278 274 275 273 269 277 270 275 273 274 273 280 281 280 283 284 282 282

GFSGBSN_sfc_thetae_021.txt.gz
Theta_e
321 322 323 322 322 321 322 323 323 323 323 323 322 322 322 322 322 323 324 325 325 324 323 323 323 323 314 303 303 321 329 330 317 312 306 304 301 299 295 296 297 295 298 301 301 300 298
324 323 323 322 322 323 323 323 324 323 323 323 322 321 321 321 322 323 323 324 324 323 321 321 321 321 308 296 314 321 320 316 311 308 305 304 302 302 297 296 295 297 297 297 298 299 298
325 325 323 324 324 324 323 323 324 324 324 323 322 321 320 321 322 323 323 323 323 320 322 321 321 317 306 302 316 320 319 312 310 308 305 306 305 302 300 296 300 297 293 295 296 296 296
326 326 325 324 325 325 324 324 323 324 323 322 321 320 320 320 321 322 323 323 320 321 322 320 322 311 298 307 310 314 311 308 310 309 306 305 306 303 299 300 297 293 290 288 295 296 296
326 326 326 326 325 325 324 324 324 323 323 321 320 320 320 321 321 322 322 322 318 320 321 322 312 306 299 310 304 306 306 305 306 305 303 307 304 298 297 292 288 288 285 287 291 297 295
326 326 326 326 326 325 324 324 323 323 322 321 320 320 321 321 321 321 322 322 318 317 317 318 313 298 300 300 303 305 303 306 303 301 300 299 296 291 290 288 282 286 285 289 288 294 293
326 326 325 325 325 324 324 323 323 323 322 321 321 321 322 322 322 323 318 310 307 305 305 303 302 299 301 303 305 303 304 302 302 298 292 294 289 286 289 291 290 288 288 287 290 295 291
326 325 325 325 325 324 323 323 323 324 323 322 322 323 323 323 323 322 315 306 303 304 301 308 309 309 305 304 300 300 303 297 296 291 293 290 287 293 294 294 292 290 288 287 291 294 291
325 325 325 324 324 324 323 323 323 324 324 323 322 322 322 322 322 317 309 305 308 304 297 303 305 304 302 304 300 299 300 297 293 291 291 289 293 296 295 293 291 289 287 287 288 291 290
325 324 324 323 323 323 322 322 322 322 322 323 322 322 321 321 314 314 307 308 308 303 291 297 299 298 300 300 296 299 301 298 295 292 291 290 295 294 292 291 292 287 292 291 290 285 282
324 324 323 322 322 321 321 321 321 321 320 320 321 321 321 320 313 312 309 308 307 302 282 296 295 303 299 296 296 295 298 296 292 293 291 291 291 289 289 291 292 289 291 289 288 285 283
324 324 323 322 322 321 321 321 321 320 320 319 320 320 320 319 316 313 310 308 305 293 284 292 294 294 293 293 294 295 295 295 294 291 291 291 291 291 292 292 292 292 289 288 286 284 278
324 324 323 322 322 321 320 321 321 321 320 319 318 318 317 317 313 311 310 307 295 287 299 291 291 293 292 291 291 292 290 287 288 285 284 289 290 291 292 288 290 288 285 280 277 276 277
324 323 322 322 322 321 321 320 320 320 318 316 317 317 316 315 311 311 309 301 287 295 294 296 294 293 292 291 291 291 290 288 291 289 286 285 284 290 291 290 288 287 288 281 274 274 276
323 322 322 321 321 321 320 318 316 314 313 313 316 316 314 313 311 313 306 291 291 293 298 296 296 292 291 294 294 291 290 290 294 292 288 285 285 290 291 291 292 288 285 289 282 276 276
321 321 321 319 317 316 314 313 311 311 312 314 308 307 308 315 313 310 299 293 295 300 298 298 292 294 288 292 291 289 290 291 291 292 293 289 284 290 289 291 291 290 292 283 282 271 272
315 315 314 314 313 312 311 310 310 311 311 310 304 300 306 311 312 304 292 293 296 299 299 295 292 292 291 290 292 289 291 291 292 290 293 291 288 286 289 287 287 286 284 286 286 282 275
310 309 308 308 308 308 307 308 309 309 310 307 301 294 308 311 295 296 292 294 297 296 299 297 295 293 291 291 290 290 290 293 295 294 290 291 288 279 284 289 290 289 287 287 279 277 278
309 308 307 307 306 305 305 305 306 308 305 303 297 297 308 307 289 290 295 295 297 294 294 294 293 295 295 291 288 290 292 294 295 294 292 292 284 274 277 283 288 285 286 286 287 284 280
307 307 306 305 305 304 303 303 305 306 302 301 296 290 297 300 298 292 292 292 291 296 293 295 293 294 291 289 291 288 288 293 293 293 296 294 286 278 275 276 283 279 281 282 283 274 274
306 306 305 304 304 302 302 302 301 300 301 300 295 290 293 287 292 293 292 291 289 289 294 294 291 291 290 287 287 287 289 289 291 294 291 289 277 281 282 283 282 281 280 281 279 280 276
305 305 304 304 303 303 302 302 301 299 299 295 289 288 290 289 292 292 291 288 289 289 291 289 288 291 291 288 286 281 285 285 285 287 286 287 275 279 273 281 280 278 279 279 279 279 278
305 305 305 304 303 303 302 302 301 300 298 290 291 291 289 287 286 288 288 289 289 291 288 289 291 289 286 285 286 286 286 285 285 283 281 280 275 268 267 277 274 267 275 277 278 279 277
303 303 304 304 303 303 303 302 300 301 297 291 290 289 285 281 285 286 286 289 288 288 287 286 287 286 285 287 285 283 281 281 281 282 284 279 273 268 263 264 258 274 277 278 277 277 275
303 303 303 303 303 302 302 302 302 301 299 291 292 288 283 277 284 283 284 283 283 286 284 283 283 285 286 282 277 270 269 272 275 278 279 282 277 265 264 258 268 274 276 275 274 272 275
302 302 302 303 303 303 303 302 302 302 301 294 291 292 285 280 279 284 282 283 279 278 279 280 282 283 283 280 273 264 263 268 266 271 277 278 279 272 258 261 259 270 277 279 277 268 272
303 302 302 302 302 302 302 302 302 302 302 295 291 291 286 278 283 282 280 282 284 281 277 277 277 278 281 275 262 263 264 273 266 265 264 263 262 269 269 262 265 273 275 278 264 268 270
301 302 302 302 302 302 302 302 302 302 302 297 291 292 287 278 283 284 285 282 281 280 274 274 274 275 274 268 267 272 266 271 268 270 270 268 264 261 259 255 261 276 274 271 274 277 277
301 301 301 301 302 302 302 302 302 302 302 300 292 293 292 282 281 287 288 288 286 285 279 273 274 270 277 270 267 268 262 264 265 262 273 267 271 265 269 267 276 277 276 279 279 276 278

GFSGBSN_sfc_thetae_024.txt.gz
Theta_e
321 320 320 321 322 322 322 322 322 322 323 322 322 322 322 322 322 323 324 325 325 325 323 322 322 323 312 301 302 318 327 327 313 310 305 303 299 298 294 295 295 294 296 298 300 299 297
322 322 322 323 322 323 323 323 323 323 323 322 322 321 321 321 322 323 324 324 325 324 321 321 322 321 305 295 314 320 317 312 309 306 303 303 300 300 297 295 294 295 296 296 297 297 296
325 324 324 324 323 323 323 323 323 324 323 323 322 321 320 320 321 323 324 324 324 321 322 322 321 317 305 300 316 318 315 310 308 306 303 304 303 299 298 294 298 296 293 294 294 295 295
325 325 325 324 324 324 323 323 323 323 323 322 322 321 320 320 321 322 323 324 323 320 322 320 321 310 296 306 309 314 310 306 308 307 305 304 303 301 297 298 296 291 289 286 293 294 294
326 325 325 324 324 324 324 324 324 323 323 322 321 320 320 320 321 322 322 323 322 319 321 322 310 303 297 309 303 304 305 304 304 303 302 306 302 296 296 290 287 287 283 285 290 295 293
326 325 325 325 325 325 324 324 323 323 322 321 320 320 320 321 321 322 322 320 318 317 317 317 313 298 299 298 302 303 302 305 301 300 299 298 294 290 289 287 281 284 284 286 287 292 291
326 325 325 325 325 325 324 323 323 323 322 321 320 320 321 321 322 323 319 309 306 304 306 302 299 298 300 302 304 301 303 301 301 296 290 293 288 285 288 290 288 287 286 286 288 293 289
325 325 325 325 325 324 323 323 323 324 323 321 320 321 322 323 323 322 314 305 303 303 300 307 306 304 302 302 298 299 302 296 295 290 292 289 286 292 292 291 290 288 286 286 289 292 290
325 325 325 324 324 324 323 322 323 323 323 321 321 321 322 322 322 317 309 305 306 303 297 301 304 305 301 302 299 299 300 296 292 290 290 288 292 294 293 290 289 288 286 286 288 289 288
325 325 324 324 323 323 322 322 321 321 321 321 321 321 322 321 315 314 307 307 307 303 291 295 298 298 298 301 296 298 299 296 292 290 290 289 293 292 290 290 291 287 291 290 288 285 282
324 324 323 323 322 321 321 321 320 320 319 320 321 321 320 321 312 311 309 307 306 302 282 296 295 302 298 297 295 294 297 295 291 292 291 290 289 289 289 290 292 289 290 288 286 283 281
323 324 323 322 322 321 321 320 320 320 320 319 319 320 320 320 317 313 308 307 305 293 284 291 293 293 291 292 292 294 293 294 293 290 289 290 290 290 290 290 290 291 288 287 284 283 277
324 323 323 322 321 321 320 321 321 320 320 319 319 319 318 321 314 310 309 308 294 287 296 290 289 292 291 289 290 291 289 287 286 284 284 288 288 290 290 287 288 287 285 279 277 275 277
323 323 322 322 321 321 320 320 320 320 320 319 319 319 317 317 312 312 312 302 287 293 292 293 291 290 288 290 289 289 287 285 288 288 284 284 283 289 290 289 288 286 286 279 273 274 277
322 322 322 321 321 321 320 320 319 319 319 319 318 317 314 311 312 314 307 292 291 295 297 294 294 290 290 291 290 287 287 287 291 290 287 284 285 289 289 290 291 286 284 287 281 271 274
321 321 321 320 320 320 320 319 318 318 317 316 312 310 311 312 314 311 301 295 295 300 298 297 291 292 287 291 290 288 289 291 291 291 292 289 283 289 289 290 289 288 291 282 281 270 271
320 320 320 319 319 318 317 316 315 314 314 313 307 303 307 313 314 304 294 294 297 300 299 295 293 292 291 290 291 288 289 291 291 290 292 290 288 284 287 286 286 285 284 284 285 280 273
311 312 312 312 312 313 314 313 313 314 312 308 303 296 307 311 298 298 293 296 297 296 299 296 296 292 291 292 289 288 289 291 293 292 289 291 288 279 284 287 289 286 285 285 278 276 278
309 309 308 308 307 307 309 312 313 312 311 305 298 297 307 307 292 292 295 295 297 294 294 295 294 295 294 292 289 289 290 292 294 293 291 291 284 272 277 283 287 284 286 286 284 280 274
308 307 307 307 306 305 306 306 309 305 305 302 296 290 297 300 298 295 293 293 293 298 296 296 294 295 292 290 291 288 288 291 292 294 296 294 284 280 279 278 283 279 282 282 282 273 275
307 307 306 305 305 304 303 304 303 302 303 301 295 291 295 288 292 293 294 293 291 289 296 296 291 292 290 286 287 287 288 288 290 293 290 290 284 281 282 284 284 282 281 280 280 279 276
307 306 306 305 304 303 302 301 301 301 302 296 290 289 291 290 294 293 293 289 290 292 292 289 289 291 290 288 288 285 288 288 286 288 287 286 277 280 274 280 281 278 280 280 280 280 279
306 306 306 305 304 303 302 302 301 299 299 292 292 292 291 289 288 289 289 289 290 292 290 291 291 289 288 290 289 286 287 287 287 286 284 282 277 272 270 275 274 267 273 278 279 279 278
304 305 305 305 304 304 303 302 302 300 297 293 291 291 286 282 286 287 288 290 290 290 289 286 287 289 285 286 285 284 281 281 283 283 284 278 276 274 266 264 259 274 276 277 276 277 276
303 304 304 305 304 304 304 303 302 301 299 292 292 289 286 279 286 286 285 287 287 288 284 283 283 284 287 284 280 276 273 277 277 279 282 282 277 267 266 260 269 274 276 275 275 273 274
302 303 303 303 303 304 303 303 302 302 300 293 291 292 286 282 280 285 284 284 282 281 279 280 283 284 284 281 277 272 270 271 268 271 277 280 279 273 260 259 260 271 276 278 276 267 270
302 302 302 303 303 303 303 303 302 302 302 294 291 291 287 280 283 283 281 282 284 282 278 278 279 282 282 277 270 268 268 273 268 267 267 266 268 271 269 260 264 273 274 277 265 269 270
301 302 303 302 303 303 303 303 302 302 302 296 291 292 287 279 282 285 285 282 282 281 277 276 279 278 278 275 272 273 268 272 269 271 270 268 266 264 262 263 261 275 275 271 275 276 276
301 301 302 302 302 302 302 303 302 302 302 300 291 292 291 282 281 288 287 288 286 285 280 275 278 274 278 272 270 272 266 265 266 264 273 268 272 266 269 268 277 277 277 280 278 276 278

GFSGBSN_sfc_thetae_027.txt.gz
Theta_e
323 322 321 321 320 322 322 321 321 321 322 322 322 322 322 321 322 322 324 325 325 325 323 321 322 322 311 299 301 317 327 325 311 308 303 302 298 297 293 294 294 293 295 297 299 297 296
323 322 321 320 321 322 322 322 322 322 323 322 321 321 321 321 321 322 323 324 325 325 321 322 322 321 302 294 312 318 314 308 307 304 302 302 300 300 295 293 293 294 295 295 296 296 294
321 322 321 321 323 323 323 323 322 323 323 322 322 321 320 320 321 322 323 324 324 324 321 322 321 315 302 299 314 316 311 307 307 305 301 302 302 298 296 293 296 294 292 293 293 293 293
324 325 324 323 323 322 323 323 323 323 323 322 322 321 320 320 321 322 323 323 323 323 321 320 321 309 297 305 310 312 308 305 307 305 304 302 302 300 296 296 294 290 288 285 291 293 293
325 324 324 324 324 323 322 323 323 323 322 321 321 320 320 320 320 321 322 323 321 320 321 322 309 302 297 309 303 304 304 303 303 301 302 305 301 295 294 289 286 286 282 284 289 293 292
325 325 324 324 324 323 323 322 323 323 322 321 320 320 320 320 320 321 323 322 318 317 316 316 312 297 299 297 301 302 301 303 300 299 298 297 293 289 288 286 282 283 283 285 285 290 290
325 324 324 324 324 324 323 323 323 323 322 321 320 320 320 320 321 323 319 310 305 304 305 301 298 298 298 300 302 299 302 301 299 295 289 292 287 285 288 289 287 285 285 285 286 291 288
325 324 324 324 324 324 323 323 323 324 323 321 320 320 321 321 323 323 314 306 304 304 300 306 304 301 301 301 297 298 301 295 293 289 291 288 285 291 290 290 289 286 284 284 288 291 289
324 324 324 324 324 323 323 323 323 323 323 321 320 319 320 322 322 318 311 307 306 303 297 301 304 304 301 301 299 298 299 295 292 289 289 287 291 293 291 288 287 286 285 285 287 288 287
325 324 324 323 323 323 322 322 321 321 321 320 320 319 320 321 317 314 307 307 306 304 291 295 297 298 298 301 296 298 298 295 291 290 289 288 292 292 288 288 289 285 290 289 288 285 281
324 324 323 323 322 321 321 321 320 320 319 319 319 319 320 321 313 309 310 307 305 302 281 295 295 300 297 298 294 293 296 294 290 290 289 289 289 287 288 289 291 289 289 288 285 283 281
322 322 323 322 322 321 321 321 320 320 319 318 319 319 320 319 318 314 307 307 304 292 282 290 293 292 291 291 292 292 292 294 293 290 289 290 290 290 290 289 290 290 287 286 284 282 277
322 321 321 321 322 321 320 321 320 320 319 318 318 318 319 321 315 311 308 307 293 287 295 289 288 290 289 288 289 290 288 287 286 284 284 287 288 288 289 287 287 286 285 279 277 275 277
322 320 318 321 321 321 320 320 320 320 319 319 318 318 319 321 314 309 310 301 287 293 292 292 290 289 287 289 288 288 286 285 287 286 283 283 283 288 290 289 286 285 286 280 274 273 276
320 321 319 320 321 320 320 320 319 319 318 318 318 318 319 320 313 312 306 293 291 295 296 291 291 286 286 288 288 286 285 285 288 288 286 283 284 288 288 289 290 285 283 286 280 269 273
319 320 320 320 320 320 320 319 318 318 318 318 316 314 314 315 313 311 302 296 296 300 299 295 288 291 285 289 288 285 285 289 290 289 290 288 283 287 287 288 288 287 290 282 280 272 271
312 318 319 319 319 319 319 319 318 317 316 316 314 305 309 313 313 305 296 297 298 301 299 296 291 291 290 290 290 286 288 290 291 289 291 289 287 284 287 285 285 285 284 284 284 280 273
310 310 312 316 318 318 318 318 319 316 314 312 305 299 308 312 299 300 298 298 299 298 299 297 295 294 292 291 290 288 288 291 292 292 288 291 287 278 283 286 287 285 285 285 281 277 277
309 308 308 308 309 311 313 317 316 315 314 307 299 298 307 307 295 292 296 296 298 295 296 296 295 296 295 291 289 288 289 292 292 292 290 291 284 274 280 283 284 283 284 284 282 278 272
308 308 307 307 307 307 308 310 309 312 309 306 297 292 297 300 298 298 294 293 293 298 296 297 295 295 293 291 293 288 288 291 291 292 296 295 286 284 281 281 283 279 282 282 281 278 278
308 307 307 306 305 305 305 306 306 306 305 303 296 293 295 290 293 295 296 295 293 291 296 296 292 294 293 289 289 289 288 288 289 293 290 290 284 282 283 282 283 281 280 280 279 281 279
308 307 306 305 305 304 303 303 303 304 304 296 291 290 292 291 295 294 294 292 292 294 293 292 292 292 293 291 290 285 288 287 286 285 286 285 279 282 279 281 282 281 282 283 283 282 280
304 307 306 306 305 304 303 302 301 302 301 293 292 292 292 289 290 292 291 292 292 295 292 292 293 291 291 292 291 287 290 289 288 285 283 282 279 276 278 276 276 273 275 279 281 281 281
304 304 306 306 305 304 303 303 301 300 298 294 292 291 287 284 286 287 289 292 290 291 288 287 289 290 288 287 287 285 282 283 285 282 285 281 280 278 271 271 268 277 275 277 277 278 277
302 304 304 305 305 304 304 303 302 300 298 294 293 290 285 283 286 287 286 288 289 291 286 286 284 286 287 286 282 279 277 279 278 279 281 282 279 272 272 264 271 275 276 274 274 273 276
302 303 303 304 304 305 304 303 302 302 298 293 292 293 288 283 282 286 285 286 284 284 281 280 283 284 285 282 280 275 273 276 271 271 277 280 280 278 265 264 264 273 276 277 277 268 272
301 302 303 303 303 305 304 304 303 302 300 293 290 292 287 281 283 284 283 283 285 283 280 279 281 282 283 279 274 272 273 274 269 266 266 268 273 274 269 269 268 272 274 277 266 271 270
302 301 302 303 303 303 303 303 303 303 302 294 290 291 287 281 283 285 285 284 282 283 279 279 280 280 278 277 276 274 272 272 270 271 270 269 267 265 265 264 264 276 275 272 275 275 275
301 302 302 302 302 302 303 303 303 303 302 298 290 292 291 282 281 287 287 288 287 287 281 278 279 277 280 276 273 274 268 270 269 266 273 270 273 268 271 270 276 277 277 279 278 276 277

GFSGBSN_sfc_thetae_030.txt.gz
Theta_e
324 323 322 321 321 321 321 321 321 321 321 322 322 321 321 321 321 322 323 324 325 325 325 322 323 322 309 297 300 315 325 322 310 306 302 300 297 295 290 293 293 293 293 295 296 296 295
324 324 323 322 321 320 320 322 322 322 322 322 321 321 321 321 321 322 323 324 325 325 324 322 322 321 299 294 311 315 310 306 306 303 300 300 298 298 294 292 291 292 293 294 295 294 293
324 324 323 323 322 320 321 322 322 322 323 322 321 321 321 321 321 322 323 324 324 324 323 322 321 314 299 300 314 314 309 305 305 303 300 301 301 297 296 292 295 293 290 291 291 291 292
324 324 323 323 322 320 322 322 322 322 322 322 321 320 320 320 321 321 322 323 324 323 321 320 320 306 298 303 310 311 306 304 305 303 303 301 301 299 295 294 292 289 287 285 289 291 291
325 324 323 323 322 322 322 322 323 322 322 321 320 320 320 320 320 320 322 323 319 320 321 321 307 300 297 308 304 304 303 303 301 300 301 303 299 294 293 288 285 285 283 283 288 291 290
325 325 324 323 323 323 322 322 322 322 321 321 320 320 320 320 320 320 322 322 318 315 315 315 309 298 299 297 300 301 301 302 299 298 297 296 292 289 287 286 282 283 282 283 284 288 289
326 324 324 323 323 323 322 322 321 322 322 321 320 320 320 320 320 322 319 310 304 303 303 301 299 298 298 299 301 298 301 300 297 294 289 290 287 285 288 288 287 285 284 284 285 290 287
325 324 324 324 323 323 322 322 322 323 323 321 320 320 320 320 321 323 316 306 304 304 300 305 303 300 300 299 295 296 300 295 292 288 289 287 285 290 290 289 287 285 284 283 287 289 288
325 324 324 323 323 323 322 322 322 323 323 321 320 319 319 320 322 320 313 308 305 303 298 301 303 303 303 300 297 296 299 294 290 288 288 286 290 291 290 287 286 284 284 283 286 286 287
320 324 323 323 322 322 322 321 321 321 321 320 320 319 319 320 317 315 310 313 305 304 292 295 297 299 298 300 296 297 297 295 290 289 288 287 290 291 287 287 287 283 288 288 286 284 282
318 319 323 322 322 321 321 321 320 320 319 319 319 319 319 321 313 310 312 306 304 303 281 294 295 300 297 298 294 293 295 294 289 289 289 289 288 287 287 288 289 287 289 287 285 283 280
320 319 320 322 322 321 321 320 320 320 319 318 318 318 318 319 318 313 307 306 304 293 282 290 292 291 293 292 290 292 292 293 293 289 288 289 289 290 290 288 290 289 287 285 283 282 276
318 320 319 320 320 321 320 321 321 320 319 318 318 318 317 321 313 309 307 306 293 287 294 289 288 289 290 288 289 289 288 287 286 284 284 286 287 288 289 286 286 286 284 279 276 275 277
316 319 319 319 318 318 320 320 320 320 319 318 318 317 317 321 316 309 308 300 287 293 291 290 289 288 287 288 287 288 286 285 288 286 283 283 282 288 290 288 286 284 285 280 274 273 276
313 316 319 319 319 317 318 320 319 319 318 318 317 317 316 319 315 311 303 292 292 294 296 289 289 284 284 287 287 286 284 284 287 287 286 282 284 287 287 288 288 284 282 285 279 269 274
312 313 318 318 318 318 319 319 318 317 317 317 315 313 313 320 315 311 299 295 296 299 297 293 290 289 283 286 285 284 284 287 288 289 290 288 283 286 286 289 288 287 289 282 280 271 271
311 311 312 316 318 318 318 318 318 317 316 316 314 306 314 321 314 305 294 295 299 301 299 294 293 289 287 288 287 284 285 288 290 288 291 289 287 283 286 284 284 285 283 283 283 280 274
310 310 309 309 312 316 318 318 318 318 316 313 308 299 310 318 301 301 297 300 301 299 300 297 296 294 291 291 288 285 286 290 293 292 288 290 286 279 283 285 285 284 284 284 281 277 276
309 309 308 308 308 310 313 317 318 318 316 308 301 299 307 311 296 297 300 300 301 297 298 296 294 296 295 291 289 289 289 291 292 293 290 291 284 274 279 283 283 282 283 284 282 279 274
307 308 307 307 307 309 308 311 316 317 315 307 299 293 298 300 299 297 297 296 295 298 297 298 296 296 292 291 294 291 289 291 291 292 296 295 285 282 281 281 283 280 282 283 284 281 281
305 309 307 306 306 306 306 307 308 308 307 304 298 293 297 291 294 294 297 296 294 292 296 298 294 295 295 289 291 289 289 289 290 294 291 292 283 283 283 282 283 283 282 281 281 283 282
303 306 307 306 305 305 304 305 305 305 305 296 292 291 292 292 295 294 294 293 294 293 293 291 292 294 295 292 291 288 290 289 288 288 288 287 283 282 278 281 282 280 282 281 283 281 280
303 304 306 306 305 304 304 303 303 303 302 293 292 293 292 291 291 292 292 291 292 295 293 294 294 293 292 295 294 290 292 292 292 288 286 284 280 278 279 277 277 277 279 281 281 282 283
303 303 304 306 306 305 303 303 302 301 300 295 293 292 289 285 289 290 291 293 292 294 291 289 292 293 288 289 290 288 284 285 287 284 287 281 279 278 273 274 271 277 275 279 283 282 282
303 303 303 304 305 305 304 304 302 301 300 294 294 290 287 284 287 286 287 288 289 289 285 286 284 285 290 288 283 280 279 281 280 278 280 282 281 273 272 271 274 277 275 274 275 275 276
302 303 303 303 304 304 305 304 303 301 299 294 293 294 289 285 284 288 285 285 284 283 282 280 283 285 286 285 282 277 274 278 274 273 278 281 283 282 270 270 269 272 276 278 277 270 274
301 302 302 303 303 303 304 304 303 302 299 292 291 294 289 284 285 286 285 284 287 284 281 280 281 282 284 281 277 276 275 278 273 271 270 274 274 277 272 272 272 274 275 277 269 274 270
300 301 302 303 302 303 303 304 304 303 300 292 289 292 287 282 284 284 285 284 284 285 281 279 281 280 280 279 279 277 276 274 273 274 272 273 273 271 272 270 269 276 276 274 276 276 277
299 300 301 301 302 302 303 303 302 303 302 296 286 291 290 283 282 286 287 287 286 289 284 281 283 280 282 280 277 276 273 272 272 269 273 272 276 272 275 274 276 278 278 279 279 277 277

GFSGBSN_sfc_thetae_033.txt.gz
Theta_e
326 324 323 322 321 321 321 321 322 321 321 322 321 321 321 321 321 322 323 324 325 325 325 323 324 323 308 297 300 314 324 324 311 305 302 301 298 297 292 294 295 295 295 296 297 297 296
325 325 324 324 323 322 320 320 321 322 322 322 321 320 320 321 321 321 322 324 325 325 324 322 323 321 299 295 311 312 309 306 305 303 301 301 299 299 295 294 294 294 295 295 295 295 295
326 325 325 324 323 322 321 320 321 322 322 322 321 321 320 321 321 322 322 323 324 324 323 322 321 313 298 301 313 312 307 304 305 303 301 301 301 299 297 293 296 294 292 293 293 293 293
326 325 324 325 324 323 322 321 320 322 322 322 321 320 320 320 321 321 322 323 324 321 321 320 320 305 299 303 311 311 306 304 304 303 303 302 302 299 296 295 292 290 289 288 292 293 293
326 325 324 324 324 323 322 321 321 322 322 321 320 319 320 320 320 320 321 323 320 320 321 320 306 299 298 308 304 305 303 303 301 301 301 302 299 295 295 290 287 287 285 285 289 293 292
326 325 324 324 323 322 322 321 321 321 321 320 320 319 320 320 320 320 321 323 318 315 315 313 307 299 299 297 299 301 301 302 299 299 298 297 292 290 288 287 284 285 284 285 286 290 290
326 325 325 324 323 322 322 321 321 321 321 320 320 320 320 320 320 321 320 310 305 302 303 301 299 298 298 298 300 298 301 299 297 294 290 291 288 287 288 289 288 287 285 286 286 290 290
326 325 325 324 323 323 322 321 321 322 321 320 320 320 320 320 320 322 318 306 303 303 299 305 303 300 299 299 295 296 300 295 292 288 289 287 286 290 290 289 288 285 285 285 287 289 289
321 322 325 324 323 323 322 321 321 322 321 320 320 319 319 320 320 320 315 310 306 303 298 301 303 302 302 299 296 295 299 294 290 287 287 286 289 290 289 287 286 285 284 284 286 287 288
319 319 320 323 323 322 321 321 321 321 320 320 320 319 318 319 316 317 313 317 306 304 292 294 297 301 298 299 295 297 298 295 290 288 287 287 290 290 286 286 286 283 287 287 286 285 282
318 320 319 319 321 321 321 320 320 320 319 319 319 319 318 320 312 312 312 308 304 302 280 294 295 299 297 298 294 293 296 295 289 290 290 289 287 287 287 288 288 287 288 286 286 284 283
315 317 319 318 319 319 320 320 320 320 319 318 319 318 318 317 316 311 306 305 303 292 282 290 292 291 293 292 291 292 293 294 293 289 287 289 289 290 290 288 289 288 287 285 283 282 277
314 314 316 318 317 318 319 320 320 320 319 318 318 318 316 318 312 308 307 305 293 286 293 288 288 290 291 288 289 290 288 287 287 284 284 286 287 288 289 286 287 285 285 279 278 277 278
313 313 314 316 318 316 317 318 320 320 319 318 318 317 316 319 313 308 309 299 287 291 290 289 288 288 288 288 287 287 286 285 287 285 283 283 282 287 289 288 286 284 285 280 274 274 277
312 312 312 314 317 317 315 317 316 318 318 318 317 316 316 317 313 312 304 292 290 292 295 288 287 284 284 286 286 285 285 285 289 288 287 283 284 287 287 288 289 284 283 286 279 269 275
310 311 311 312 313 318 316 316 316 316 317 317 314 313 312 319 314 312 299 293 295 298 294 291 289 288 283 284 284 284 283 286 288 290 291 288 283 286 286 288 288 286 288 282 280 273 271
308 310 310 311 311 313 317 317 317 317 316 317 314 306 314 319 313 306 293 293 297 301 297 292 291 289 286 284 285 282 284 286 288 288 291 289 288 284 286 285 285 285 283 283 284 281 276
307 308 310 310 310 310 313 317 318 317 316 313 309 300 314 318 300 302 296 296 299 301 301 297 296 296 290 289 285 284 284 288 291 290 288 290 287 280 283 285 285 285 285 285 281 277 277
305 306 308 309 309 309 309 312 317 317 316 309 302 302 309 314 295 296 300 299 300 298 300 299 296 296 295 290 288 286 286 291 293 291 289 291 285 277 281 284 283 283 284 284 283 280 276
303 305 306 309 308 308 308 309 310 316 317 312 299 292 298 300 299 299 296 297 296 302 300 299 297 296 293 293 294 290 287 289 291 292 296 295 286 284 284 284 284 281 282 283 285 276 280
302 303 305 307 307 307 306 307 308 309 313 307 299 294 297 292 295 295 295 297 296 295 299 300 295 297 295 291 291 291 290 289 290 294 292 292 285 282 284 284 284 284 283 282 283 285 282
301 302 304 305 307 306 305 305 306 306 307 300 294 292 293 293 296 295 294 292 293 297 294 294 295 297 298 294 295 292 291 289 290 288 289 289 286 283 281 282 282 281 283 283 284 284 284
303 302 303 305 306 305 304 304 304 304 303 294 293 293 294 292 291 292 293 294 292 296 294 295 296 294 294 296 294 291 294 294 292 289 287 286 283 283 283 279 281 280 281 282 282 282 285
302 303 303 303 304 306 304 304 303 302 300 296 293 294 290 285 290 291 292 294 292 294 293 292 293 290 290 292 293 291 288 288 290 286 291 284 284 283 272 277 274 278 275 281 283 283 281
301 302 302 303 303 304 306 304 303 301 300 295 294 292 288 285 288 287 288 290 292 290 290 289 286 287 292 290 284 282 280 282 280 278 283 285 284 275 274 274 278 276 275 278 280 279 280
300 300 301 302 303 303 304 305 304 302 301 295 294 295 291 286 285 289 286 287 285 284 282 281 284 285 288 285 283 279 276 279 276 275 279 283 284 284 273 273 272 276 276 277 279 274 274
297 299 300 301 303 303 303 304 305 302 300 293 292 295 290 285 286 288 285 285 288 285 281 281 282 284 284 282 278 278 277 279 274 273 274 276 276 279 275 274 276 278 276 278 274 278 276
296 298 299 301 301 302 302 303 304 303 300 292 290 294 290 285 284 284 287 286 285 285 281 280 282 281 281 280 280 278 276 276 275 274 274 276 275 274 275 273 273 277 276 276 280 277 278
295 297 298 299 300 301 302 303 303 304 300 295 286 291 290 284 283 287 287 287 288 290 284 282 284 280 283 281 280 278 274 274 274 274 274 275 278 276 278 277 277 279 279 280 280 279 278

GFSGBSN_sfc_thetae_036.txt.gz
Theta_e
326 325 324 322 322 322 322 321 321 322 321 322 322 321 321 321 321 321 322 324 325 325 325 325 324 323 313 307 307 319 324 327 317 312 310 307 304 304 300 301 303 302 302 302 304 303 303
327 326 325 324 322 321 322 321 321 322 322 322 321 321 320 321 321 321 322 323 325 325 325 324 323 321 308 305 316 317 313 312 312 311 308 308 305 306 302 301 301 301 301 301 302 301 301
327 326 326 325 324 322 321 322 320 320 322 322 321 321 320 321 321 321 322 323 324 325 323 322 321 316 307 309 318 317 312 310 311 310 308 308 309 306 304 300 302 300 298 301 301 300 300
328 327 326 325 324 323 322 322 321 320 321 321 321 320 320 320 321 321 321 322 324 321 321 322 321 310 308 308 321 315 313 310 310 310 309 309 309 306 303 302 300 298 297 296 299 299 298
328 327 326 325 324 324 323 322 322 320 319 321 320 319 320 320 320 320 321 322 322 320 321 321 313 308 306 313 311 313 312 308 307 308 308 307 307 303 302 299 297 296 295 294 297 298 298
329 327 325 325 324 324 323 322 321 320 320 320 320 319 319 320 320 320 320 322 320 317 316 314 310 306 305 302 306 307 308 308 306 306 305 305 303 300 299 297 293 295 293 293 295 297 297
323 326 326 325 324 323 323 322 321 321 320 320 320 319 320 320 320 320 321 319 312 309 310 308 306 305 302 303 305 305 307 305 305 303 299 299 297 294 298 299 298 296 295 295 295 296 296
322 322 326 325 324 323 322 321 321 322 321 320 319 320 320 320 320 321 321 315 311 310 305 310 308 304 303 304 299 302 306 302 301 297 297 296 294 300 297 296 295 294 294 294 295 295 295
319 321 320 321 324 323 322 321 321 322 321 320 319 319 320 320 320 320 317 316 311 310 306 306 307 307 304 303 301 300 303 300 297 294 295 296 297 297 295 293 292 293 293 294 293 293 294
316 318 320 320 320 321 322 321 321 320 320 319 319 319 319 319 315 317 314 320 315 311 299 300 301 306 301 303 299 301 304 300 296 295 294 295 296 293 293 293 294 291 295 293 292 291 290
315 316 316 318 319 318 319 321 320 319 319 318 319 319 319 319 317 313 315 320 317 310 286 300 299 303 301 302 299 296 301 300 295 293 295 295 292 292 292 294 294 294 294 293 292 291 290
313 315 315 315 316 318 318 318 320 320 319 318 318 318 318 317 317 316 311 310 310 296 286 294 296 295 297 296 295 296 297 300 299 294 294 296 295 295 296 293 295 294 293 291 291 290 285
312 313 314 314 315 315 317 317 319 320 319 318 318 318 317 319 311 313 309 307 295 289 298 291 293 294 296 292 292 294 293 293 294 291 292 292 293 294 294 292 292 293 292 287 284 284 284
311 312 313 313 313 314 316 316 318 318 319 318 318 317 317 318 318 309 309 301 288 295 296 293 292 293 293 292 292 291 290 292 295 294 291 290 288 292 294 296 293 291 293 289 282 282 285
307 310 311 312 312 312 314 317 315 316 316 318 317 317 316 318 313 311 303 292 291 296 300 292 291 290 292 291 292 291 292 293 295 294 292 289 290 292 291 293 296 290 287 293 284 278 284
305 307 310 311 311 312 312 314 314 314 315 315 314 313 312 319 315 309 299 293 296 302 298 296 292 294 290 290 290 290 290 294 293 295 298 294 289 290 290 293 293 292 294 286 287 282 281
304 306 308 309 311 311 311 313 315 314 314 314 312 306 314 319 314 304 292 294 298 303 300 296 296 294 293 289 292 289 292 293 296 293 296 294 292 288 290 289 290 288 288 289 290 288 285
303 303 306 307 308 310 310 311 312 314 314 312 308 300 315 317 300 301 295 297 301 301 301 300 299 299 294 291 290 290 291 296 295 294 290 296 292 286 287 290 290 293 291 290 287 283 284
304 303 303 306 307 309 309 310 310 312 316 311 303 303 313 313 295 294 299 298 300 299 300 300 297 298 298 292 290 292 293 295 295 294 293 294 290 286 286 287 288 287 289 290 290 288 286
302 303 303 304 306 308 309 308 309 309 312 312 300 294 300 306 303 298 295 296 296 301 300 301 301 299 294 294 294 295 293 293 295 295 297 297 291 289 287 290 291 286 288 289 289 287 287
303 303 302 303 305 307 308 308 308 308 309 311 301 295 298 292 298 299 299 297 295 295 299 301 298 298 297 292 294 293 294 291 292 294 294 294 288 291 292 291 290 289 289 288 287 289 288
303 303 302 302 304 306 308 307 306 306 307 302 296 293 295 293 297 298 296 296 295 297 296 295 295 298 298 295 296 293 296 294 292 291 291 291 289 291 287 291 288 286 289 288 289 290 291
302 303 303 303 303 305 306 306 305 304 303 295 294 295 297 293 292 293 294 295 294 296 295 297 297 297 296 298 300 299 296 298 296 291 289 289 289 285 284 289 284 281 286 288 289 291 290
299 301 302 303 303 304 304 305 304 303 302 297 295 295 291 288 292 291 293 296 294 294 292 293 295 294 291 294 294 292 289 289 291 288 292 289 288 287 283 281 276 285 283 291 288 289 289
298 298 300 302 302 303 304 305 305 303 302 297 295 293 289 285 290 288 291 293 295 295 292 292 290 290 293 291 286 284 283 284 282 280 285 288 286 278 278 278 283 278 280 285 285 287 288
297 297 298 299 301 302 303 304 305 303 302 298 295 296 292 286 286 290 289 290 287 288 284 282 284 286 290 287 284 281 279 283 279 279 281 284 287 285 278 279 278 283 280 283 286 282 284
296 296 297 297 299 301 302 303 303 304 303 297 295 297 292 286 289 289 286 287 289 287 283 282 283 284 286 284 282 281 282 283 278 278 277 279 279 281 278 279 281 286 280 281 279 284 283
295 296 296 297 298 299 301 303 303 304 302 297 293 296 293 287 287 287 289 287 286 287 284 283 284 283 283 282 282 281 279 279 279 278 279 280 279 279 279 278 277 280 279 281 285 281 283
295 295 296 296 297 298 300 301 302 303 302 296 291 293 292 288 286 287 288 289 289 291 285 283 284 283 287 285 284 281 278 278 279 277 277 278 283 281 282 282 280 282 282 283 283 284 281

GFSGBSN_sfc_thetae_042.txt.gz
Theta_e
327 326 325 324 324 323 322 322 321 320 322 322 322 322 321 321 321 322 322 323 324 325 326 325 325 324 318 311 311 319 325 325 319 314 311 309 304 303 299 301 302 299 300 302 303 302 301
328 327 326 325 324 324 323 322 322 321 320 321 322 321 321 321 321 322 322 322 323 325 325 324 324 321 315 305 318 318 315 316 314 311 310 309 305 305 302 301 299 301 302 301 302 302 301
329 328 327 327 325 324 323 323 322 322 322 320 321 321 320 320 321 321 322 322 323 324 323 323 324 318 312 310 319 315 313 312 312 312 310 310 308 304 304 300 303 301 296 299 300 300 298
328 329 328 327 326 325 323 323 322 322 320 320 320 319 320 320 321 321 321 322 322 322 322 323 324 316 307 314 319 315 314 311 312 312 311 310 310 307 304 303 300 296 295 291 299 300 298
324 324 327 327 327 326 324 323 323 322 321 320 319 319 320 320 320 320 321 321 321 322 321 321 317 313 306 316 312 316 314 309 309 310 309 310 309 303 301 295 293 295 289 292 295 299 297
322 322 323 323 326 326 325 324 323 322 321 320 319 318 319 320 320 320 320 321 322 322 319 317 314 306 307 305 310 313 312 311 308 307 305 305 301 297 296 293 288 291 291 294 293 296 296
319 320 321 322 321 323 325 324 323 322 321 320 319 318 319 319 320 320 319 317 313 310 312 307 308 308 306 306 310 308 310 307 307 303 297 300 294 292 295 297 297 296 293 292 294 296 294
316 317 318 318 321 321 323 324 323 323 322 320 319 318 319 319 320 320 318 311 311 309 303 312 311 310 307 307 301 306 308 302 301 296 299 295 291 299 301 300 297 295 293 292 296 296 293
314 315 316 316 316 318 320 320 323 323 323 320 319 318 319 319 320 318 314 313 315 313 304 304 311 309 306 304 302 302 304 302 298 296 297 294 297 300 298 296 295 294 292 291 292 293 292
312 312 314 315 315 315 316 318 318 321 321 320 319 318 318 318 315 315 311 317 320 319 296 296 304 308 304 305 300 306 305 302 298 295 297 296 300 296 296 295 295 291 296 295 294 290 285
311 311 312 314 315 315 315 315 317 317 319 319 318 318 317 319 313 310 313 319 319 314 281 300 301 309 305 302 300 299 303 300 296 295 297 294 293 293 293 295 297 293 296 293 292 289 288
309 309 310 311 313 314 314 314 314 315 317 318 318 317 317 316 315 316 318 318 316 294 282 296 298 298 297 300 297 297 297 300 300 296 295 294 296 295 295 295 295 296 293 292 290 289 282
307 308 309 309 310 313 314 313 313 314 315 316 317 317 315 317 309 317 319 312 290 284 295 292 294 297 297 296 294 295 293 291 291 288 288 292 293 295 296 291 293 293 290 283 280 279 280
306 306 308 308 308 310 312 313 313 313 314 315 316 317 315 317 318 316 314 298 283 290 290 299 298 297 294 296 294 293 291 289 293 293 291 287 286 293 295 295 291 290 291 284 278 279 281
306 305 305 305 306 308 310 311 312 312 312 313 315 314 315 316 318 315 305 288 286 291 295 294 296 292 292 294 293 291 291 291 294 294 290 290 290 295 295 296 297 290 287 295 285 278 278
306 307 306 304 305 306 308 310 311 311 312 312 311 310 311 318 319 310 299 290 291 298 299 296 290 295 291 292 290 290 290 295 295 296 298 296 289 293 290 293 293 291 294 285 284 274 275
305 306 306 306 304 304 306 308 309 311 311 311 308 301 312 319 315 304 292 291 295 300 300 296 294 293 293 293 291 289 292 295 298 296 298 296 292 286 289 287 289 287 286 288 289 285 279
305 305 305 306 306 304 304 305 308 309 311 308 304 295 313 317 299 300 295 296 299 298 302 300 300 297 296 295 292 291 291 296 300 299 293 297 293 284 285 291 292 292 290 290 283 281 284
303 304 305 305 305 305 304 304 306 308 309 305 298 299 312 313 294 295 297 297 299 298 299 299 298 299 300 296 292 294 295 299 300 297 294 296 290 283 284 287 288 287 289 292 291 286 285
301 301 303 304 304 304 304 304 305 307 309 305 297 292 299 304 303 298 295 294 294 300 299 301 300 300 297 296 298 293 294 297 298 298 299 299 292 288 286 288 290 284 287 289 290 284 284
300 300 300 302 303 304 304 304 304 305 308 303 297 293 298 292 295 297 298 296 293 293 298 300 297 298 297 293 294 294 295 293 294 297 297 296 289 291 292 294 292 287 286 288 287 289 286
299 299 300 300 302 303 304 304 305 305 307 299 292 292 295 294 297 295 295 292 293 295 296 294 294 297 297 294 295 293 296 295 292 291 291 293 287 290 288 291 291 289 291 289 288 289 290
298 299 299 299 299 301 302 304 304 306 306 297 299 297 295 292 292 291 289 292 293 296 297 299 298 296 295 298 301 302 301 300 297 292 288 289 287 286 285 288 288 284 289 291 291 290 290
297 298 298 299 298 300 300 302 304 305 305 300 300 296 290 286 290 290 293 293 292 293 291 295 297 297 301 299 299 295 291 292 296 296 294 288 287 287 285 286 279 287 294 294 292 294 293
296 297 297 298 298 299 298 300 301 303 305 301 300 295 289 284 289 290 291 292 294 294 292 292 292 290 293 294 290 287 285 288 288 287 291 294 288 286 283 284 287 288 282 286 287 289 295
296 296 296 297 298 298 298 297 299 301 304 302 299 300 292 285 285 290 290 292 289 289 286 286 286 287 292 286 285 283 284 285 282 281 284 286 291 287 283 282 280 280 281 286 290 284 290
295 295 296 296 297 297 298 298 297 299 302 301 298 300 294 285 289 290 287 288 292 291 287 285 285 286 287 284 283 283 283 284 280 280 277 282 284 282 284 282 283 281 279 285 282 282 280
295 295 295 295 296 296 297 297 297 297 300 299 297 299 295 288 289 290 291 288 287 287 287 285 285 284 283 283 284 284 284 282 282 282 280 281 280 280 283 281 280 281 281 283 283 281 283
294 294 294 294 295 296 296 297 297 297 298 300 293 298 297 290 289 289 290 292 292 291 287 285 285 285 287 285 284 285 281 281 283 280 281 281 285 283 285 283 281 281 281 283 283 283 284

GFSGBSN_sfc_thetae_045.txt.gz
Theta_e
328 327 326 325 325 323 321 322 321 320 320 322 321 321 321 321 321 322 322 323 324 324 325 324 324 323 314 305 306 316 324 323 315 309 307 305 299 297 294 296 298 295 296 299 300 299 298
329 328 327 326 325 324 323 323 322 322 320 320 321 320 320 320 320 321 322 322 323 324 325 324 324 323 309 299 315 315 313 313 312 307 305 304 301 301 297 296 295 297 298 298 300 299 298
330 329 328 327 326 324 323 323 323 322 322 321 320 320 320 320 321 321 322 322 322 323 324 323 324 317 306 305 313 310 311 308 308 307 305 306 305 300 299 296 299 298 293 295 296 298 296
325 325 328 328 327 325 324 323 323 322 321 320 319 319 319 320 320 321 321 322 322 322 323 323 323 312 301 311 312 311 309 307 308 308 307 306 305 303 299 299 297 293 291 288 295 297 296
323 323 324 324 327 327 325 324 323 323 321 320 318 318 318 320 319 320 320 321 320 322 324 323 311 307 301 314 310 312 308 305 306 306 305 308 304 299 297 291 289 289 286 288 293 296 295
319 320 322 322 323 323 325 325 324 323 321 320 319 318 318 319 319 319 320 321 320 320 320 317 313 299 303 302 307 310 307 307 304 303 301 300 297 292 292 289 284 287 286 290 290 294 293
317 317 318 318 320 322 321 323 324 323 322 320 319 318 318 319 319 320 318 313 309 305 308 299 301 301 302 304 307 306 307 305 303 299 292 295 290 288 291 292 292 291 289 288 291 294 292
315 315 316 317 316 317 319 320 322 325 323 321 319 319 319 319 319 320 314 307 307 305 299 308 307 307 304 304 299 304 306 299 298 293 295 292 289 295 296 295 294 292 289 289 292 293 292
313 313 313 314 316 315 315 317 319 320 323 321 319 318 318 319 319 317 311 310 313 308 298 303 307 306 302 303 299 300 302 299 295 293 293 290 294 298 296 294 293 291 289 288 290 291 290
311 311 312 312 314 315 314 315 316 317 318 320 319 319 318 318 313 313 308 315 315 314 289 292 299 305 301 302 297 304 304 300 296 293 293 292 297 295 294 293 293 288 293 293 292 288 284
310 310 310 310 311 314 314 315 314 315 315 317 319 319 318 318 312 309 312 316 315 310 276 292 300 306 302 300 298 297 301 298 293 294 294 291 293 292 293 293 295 291 293 291 290 287 285
306 308 308 309 310 311 312 314 314 314 314 314 317 318 318 316 314 315 316 317 314 293 278 292 297 296 296 298 295 296 297 298 298 294 293 292 294 294 294 292 294 294 292 291 289 287 280
307 306 306 307 309 309 310 312 313 313 313 314 314 316 316 317 308 316 319 305 285 281 292 290 292 295 295 294 292 293 291 290 290 287 286 290 290 292 294 291 293 292 288 281 279 278 280
307 307 305 305 307 307 308 309 311 312 312 313 313 316 315 317 317 316 313 294 282 288 288 295 295 293 291 294 292 291 290 288 291 290 288 287 284 291 293 292 290 288 289 282 277 277 279
307 306 307 305 305 305 305 307 310 311 312 312 312 314 313 315 318 315 304 284 287 290 293 292 293 289 289 292 291 289 288 290 292 293 289 287 286 292 293 296 295 288 286 293 285 273 276
306 306 306 307 307 305 305 305 308 310 311 311 305 308 307 317 318 311 299 289 289 296 295 295 290 292 287 289 288 288 287 291 292 295 295 293 287 290 289 295 292 291 292 284 283 274 273
305 305 306 306 307 307 305 304 306 309 310 310 303 299 306 317 315 303 292 290 294 298 298 295 291 291 291 290 289 287 288 291 295 293 296 294 292 285 288 287 288 288 286 287 288 283 278
301 303 303 305 306 306 306 304 304 307 309 306 298 291 308 316 299 300 294 297 298 297 300 297 297 295 292 293 290 288 288 293 297 296 291 295 292 281 285 289 290 289 289 288 284 281 281
300 301 302 303 304 305 306 305 304 305 306 302 294 294 305 309 291 293 298 297 298 297 297 297 296 297 297 294 290 292 291 296 297 296 293 296 290 283 283 286 287 287 289 292 289 282 284
300 300 301 301 301 302 304 305 305 304 305 303 295 288 294 298 299 295 294 295 294 300 298 299 297 298 296 295 297 293 292 295 297 297 298 299 291 289 286 288 288 285 287 289 290 284 284
299 300 300 300 301 301 300 304 304 305 305 301 295 288 292 289 291 292 294 295 294 293 298 299 296 296 295 292 294 293 295 293 295 297 297 297 288 289 292 291 289 287 286 288 287 289 286
298 298 299 300 300 301 301 302 303 304 305 296 290 289 290 290 293 293 292 290 289 292 296 294 294 296 297 294 294 292 295 294 292 291 294 294 288 290 288 291 290 288 288 288 289 290 290
298 298 298 299 300 300 301 300 303 303 303 294 297 293 293 290 288 287 290 291 293 296 296 298 297 296 295 297 301 301 300 299 296 292 290 290 289 286 285 289 287 284 289 291 290 290 290
298 297 297 298 298 299 300 299 299 301 302 297 297 294 289 284 287 288 290 292 292 293 292 292 294 293 295 297 300 300 294 295 298 293 294 287 289 287 285 286 279 288 293 295 293 294 293
297 297 297 297 297 298 299 299 299 298 299 298 297 295 289 284 286 285 287 288 291 292 292 293 293 294 294 293 289 289 288 288 291 294 291 295 289 285 283 284 286 288 284 288 289 290 296
297 297 296 296 296 297 298 299 299 298 297 297 298 299 293 285 284 288 285 287 286 288 287 287 286 288 292 287 285 284 283 285 285 283 284 292 295 288 283 282 280 284 283 285 291 286 292
297 297 296 296 296 296 297 298 299 298 298 295 296 298 294 285 289 289 286 286 288 287 286 285 285 286 288 285 282 282 282 285 281 280 279 285 287 284 285 284 284 282 280 285 284 284 279
296 296 296 295 295 296 296 297 298 298 298 294 293 298 294 285 289 291 289 287 287 287 287 285 285 285 284 283 284 284 284 283 282 283 281 283 283 282 284 282 281 285 283 285 284 281 282
296 296 295 295 295 295 295 296 296 297 298 297 288 297 299 288 287 289 290 292 293 293 288 286 286 284 287 285 285 285 282 282 283 280 283 282 284 282 285 284 285 283 285 284 283 282 284

GFSGBSN_sfc_thetae_048.txt.gz
Theta_e
328 328 327 326 325 324 323 322 321 319 319 320 321 321 320 320 320 321 322 322 323 323 324 325 324 324 313 302 304 314 323 321 312 307 304 302 297 295 293 294 296 292 294 297 298 298 296
329 329 328 327 326 325 324 323 322 321 320 320 319 320 320 320 320 321 321 322 322 323 323 324 324 323 307 296 313 312 312 311 309 305 302 301 299 298 296 295 293 296 296 296 298 297 297
326 329 329 328 326 325 324 323 323 323 322 321 320 319 320 320 320 320 321 321 322 322 322 324 324 317 304 302 312 309 309 306 306 305 302 303 303 299 297 295 298 296 291 293 295 297 295
324 324 324 326 327 326 325 324 323 323 322 321 319 319 318 319 320 320 320 321 321 322 322 324 324 310 299 310 311 308 307 305 306 306 305 304 304 301 298 298 296 291 290 287 293 295 295
320 321 322 323 323 323 326 325 324 323 322 320 319 318 318 318 319 319 320 320 320 321 323 324 310 304 298 313 309 311 305 303 304 304 303 307 303 296 295 291 288 288 285 286 291 295 293
317 318 318 319 320 322 322 323 325 324 322 321 319 318 318 318 319 319 319 321 320 319 318 318 312 298 301 301 307 308 305 305 302 300 299 299 295 292 290 288 284 285 285 287 288 292 291
316 315 316 317 317 317 318 320 321 324 323 321 320 319 318 318 319 319 316 311 304 301 305 296 299 296 301 303 306 304 306 303 302 297 291 293 289 287 291 290 290 289 287 287 289 294 291
313 314 313 314 316 316 315 316 318 320 322 322 320 319 319 318 319 319 312 305 303 305 298 306 306 305 303 304 298 302 305 299 296 292 293 291 288 293 294 293 291 289 287 287 290 293 291
312 312 312 312 313 315 315 314 315 316 318 319 320 319 319 319 319 316 309 309 312 308 297 299 305 304 302 302 299 299 302 298 294 292 292 289 293 296 294 292 290 289 287 287 289 289 289
308 311 310 311 310 312 314 314 314 315 315 316 318 319 318 318 313 312 308 314 314 311 285 289 298 303 300 302 297 303 303 299 294 292 292 291 295 294 292 291 292 287 292 291 290 287 283
307 307 308 309 310 310 311 313 314 314 314 314 315 318 318 318 312 307 311 315 315 307 276 291 297 304 300 299 296 297 300 297 292 293 293 291 292 292 291 292 294 290 293 290 288 285 283
306 306 306 306 308 309 310 310 312 314 313 313 314 315 318 316 315 315 317 317 310 291 277 289 297 295 295 296 294 295 296 297 297 293 292 291 293 294 294 293 294 293 291 289 287 285 279
308 307 306 305 305 307 308 308 310 312 313 313 313 313 315 317 309 317 316 306 285 282 293 289 291 294 294 292 291 292 291 290 290 287 287 289 290 292 293 291 292 291 288 280 279 277 280
307 307 308 307 305 305 305 306 307 310 311 312 312 312 314 317 317 318 310 295 281 287 290 295 294 292 290 293 291 290 289 289 292 289 286 286 283 291 293 292 290 289 287 281 276 276 279
304 306 306 307 307 306 305 304 305 308 310 312 311 307 311 313 317 316 300 286 288 290 294 293 294 291 290 291 290 288 287 289 292 292 288 286 286 291 291 293 295 288 285 291 284 271 276
302 304 305 306 307 307 307 305 305 307 309 310 300 301 304 313 317 310 297 289 290 295 296 296 291 292 288 289 288 287 286 290 291 294 294 291 284 287 288 292 290 289 292 284 282 274 273
302 302 304 304 305 306 306 306 306 306 308 309 298 295 302 313 314 302 291 293 295 297 297 294 293 292 290 289 289 286 288 290 293 292 295 293 290 284 287 287 287 287 286 287 287 282 277
300 301 302 302 303 304 305 306 305 305 307 304 299 290 302 314 297 296 292 297 298 296 299 297 297 294 292 291 290 288 287 291 295 294 290 293 292 281 284 288 288 288 287 287 282 279 280
300 300 301 301 302 303 303 304 305 305 306 297 293 291 301 308 288 289 294 297 298 297 297 296 295 296 295 293 290 290 289 294 296 294 291 294 288 279 282 286 286 285 288 292 288 283 281
299 300 300 300 301 301 302 302 302 305 305 297 291 285 291 296 297 292 290 291 293 300 298 299 297 298 295 293 295 291 291 294 296 295 298 298 291 286 284 285 288 283 285 288 290 285 285
299 299 299 299 300 301 302 301 301 301 305 295 289 288 288 286 288 290 291 293 290 291 298 299 295 296 294 291 293 292 294 292 294 296 296 295 288 288 291 290 289 287 286 288 287 289 287
299 299 299 299 299 300 301 301 302 300 303 294 287 287 290 286 289 290 290 288 288 290 292 294 294 296 296 292 293 291 294 294 294 293 293 294 289 290 288 291 288 286 287 289 289 290 290
298 299 299 298 299 299 300 301 301 302 302 292 292 294 292 288 286 284 286 289 288 291 293 294 292 294 293 296 299 300 299 299 298 295 293 293 290 288 285 289 286 284 289 288 288 291 290
298 299 299 299 298 298 298 299 301 301 300 295 293 291 287 283 285 285 287 288 289 291 291 293 295 293 296 297 298 297 296 297 298 295 296 288 290 289 286 286 280 290 295 295 292 292 292
298 298 298 298 298 298 298 298 300 300 300 294 293 292 287 282 286 285 286 288 289 291 291 290 293 294 296 294 287 286 286 287 291 293 293 295 290 286 283 284 287 288 286 288 289 291 296
297 298 298 298 297 297 297 297 298 299 300 296 293 293 290 283 283 288 284 285 284 284 284 287 286 288 292 288 285 282 280 284 285 286 292 294 294 287 283 281 280 286 286 290 292 287 294
297 297 297 297 297 297 297 297 297 298 299 296 291 294 289 284 288 287 285 282 285 282 277 284 285 287 288 285 283 281 281 286 283 281 280 286 288 284 284 284 286 283 281 287 285 286 278
296 297 297 297 297 297 296 296 297 297 298 297 290 293 288 285 288 290 290 285 286 284 281 279 286 285 285 284 284 283 283 283 283 283 282 284 285 285 286 283 281 285 283 287 286 281 283
296 296 296 297 297 296 296 296 296 296 297 297 287 293 294 286 286 289 291 290 292 291 288 285 284 281 287 286 285 284 284 283 284 281 284 282 287 284 285 285 286 285 286 285 284 285 286